Location: Klickitat County Star Party
(45.8642°N, 120.6771°W)
Time: 21:54:30
(UTC-07:00)

SO-50 - Pass Details

Date: 31 May 2019
Orbit: 586 x 700 km, 64.6° (Epoch: 18 June)

Event Time Altitude Azimuth Distance (km) Brightness Sun altitude
Rises 02:41:43 0° 312° (NW) 3,075 ? -18.4°
Reaches altitude 10° 02:44:30 10° 298° (WNW) 2,141 ? -18.2°
Enters shadow 02:47:50 22° 255° (WSW) 1,480 ? -18.0°
